sat.trackr.live / text

‹ back to catalog

STARLINK-35600

NORAD 66510 · 2025-263AB

PAYLOAD ACTIVE UNKNOWN

§ Identity

Operator
Country
US
Launch date
2025-11-15
Launch site
AFETR
Launch vehicle
Mass (kg)
RCS (m²)

Purposes: comms

External: N2YO · Heavens-Above · Gunter

§ Orbital elements

Epoch: 2026-09-20T11:13:14.036448Z

Period
94.27 min
Inclination
42.9989°
Eccentricity
0.0001476
Mean motion
15.27589988 rev/d
Perigee alt
482.0 km
Apogee alt
484.0 km
Semi-major
6,861.2 km
B*
3.5357e-4
RAAN
331.0354°
Arg perigee
275.8615°
Mean anomaly
84.2069°
Rev number
4,868

§ Raw data

STARLINK-356001 66510U 25263AB  26263.46752357  .00009483  00000+0  35357-3 0  99932 66510  42.9989 331.0354 0001476 275.8615  84.2069 15.27589988 48689

JSON: /api/v1/satellites/66510 · /tle

For live sub-satellite position, see the globe view (requires WebGL).

§ Visibility from observer

Set your observer location to see the next 7 days of passes ≥ 10°. The values pass through the URL so the page stays shareable.

No JS? Fill the form by hand. The geolocation button needs JavaScript.